[[{"header":{"parameterUnit":"m.s-1","parameterCategory":1,"la1":30.2991,"la2":30.254,"lo1":-89.0895,"lo2":-89.0444,"dy":0.0017,"dx":0.0017,"nx":28,"ny":28,"refTime":"2024-12-06T09:00:00:Z","depth":0,"parameterNumber":2,"parameterNumberName":"U-component_of_WINDS"},"data":[0,0,0,0,0,0,0,0,0,0,0,0,0,0,0,0,0,0,0,0,0,0,0,0,0,0,0,0,0,0,0,0,0,0,0,0,0,0,0,0,0,0,0,0,0,0,0,0,0,0,0,0,0,0,0,0,0,0,-2.341,-2.341,0,-2.3455,-2.3455,-2.3456,-2.3399,-2.3397,-2.3395,-2.3393,-2.344,-2.3443,-2.3446,0,0,0,0,0,0,0,0,0,0,0,0,0,-2.3275,-2.3278,-2.341,-2.341,-2.3411,-2.3454,-2.3455,-2.3456,-2.34,-2.3397,-2.3395,-2.3392,-2.3439,-2.3443,-2.3447,0,0,0,0,0,0,0,0,0,0,0,0,0,-2.3328,-2.3279,-2.3409,-2.3388,-2.3386,-2.3454,-2.3455,-2.3456,-2.34,-2.3397,-2.3394,-2.3391,-2.3438,-2.3442,-2.3447,-2.3539,0,0,-2.3462,-2.3464,0,0,0,0,0,0,0,0,-2.3325,-2.3333,-2.3391,-2.339,-2.3388,-2.3418,-2.3425,-2.3484,-2.3401,-2.3395,-2.3393,-2.3389,-2.3435,-2.344,-2.3455,-2.3541,-2.3543,-2.3462,-2.3465,-2.3467,-2.3468,0,0,0,0,0,0,0,-2.3322,-2.3331,-2.3427,-2.3391,-2.339,-2.3376,-2.338,-2.3436,-2.3432,-2.3395,-2.3391,-2.3397,-2.3434,-2.3451,-2.3456,-2.3544,-2.3462,-2.3466,-2.3469,-2.3471,-2.3706,-2.3709,0,0,0,0,0,0,-2.332,-2.3328,-2.3426,-2.3429,-2.3348,-2.3381,-2.3386,-2.3412,-2.3431,-2.3431,-2.34,-2.3394,-2.3444,-2.3451,-2.3457,-2.3566,-2.3467,-2.3471,-2.3474,-2.3703,-2.3707,-2.3711,0,0,0,0,0,0,-2.3318,-2.333,-2.3424,-2.3377,-2.3388,-2.3387,-2.3416,-2.3414,-2.3431,-2.3435,-2.3434,-2.3418,-2.3442,-2.3451,-2.3519,-2.3567,-2.3474,-2.3478,-2.3699,-2.3704,-2.3709,-2.3785,0,0,0,0,0,0,-2.3314,-2.3329,-2.3364,-2.3379,-2.3391,-2.3485,-2.3419,-2.3417,-2.3439,-2.3433,-2.3451,-2.3452,-2.344,-2.3512,-2.3524,-2.3572,-2.3482,-2.3694,-2.3701,-2.3707,-2.3778,-2.3792,-2.3804,0,0,0,0,0,-2.331,-2.3384,-2.3366,-2.3378,-2.3435,-2.3488,-2.3495,-2.348,-2.3443,-2.3478,-2.3481,-2.3451,-2.356,-2.3519,-2.3532,-2.3583,-2.3691,-2.3699,-2.3707,-2.3772,-2.3789,-2.3804,0,0,0,0,0,0,-2.3375,-2.3385,-2.3366,-2.3447,-2.3467,-2.3478,-2.3522,-2.3499,-2.353,-2.3523,-2.3503,-2.3508,-2.3581,-2.3588,-2.3543,-2.3672,-2.3619,-2.363,-2.3665,-2.3681,-2.3694,-2.3691,-2.3486,0,0,0,0,0,-2.3399,-2.3442,-2.3448,-2.3519,-2.353,-2.3524,-2.3547,-2.3534,-2.3554,-2.3562,-2.357,-2.359,-2.3629,-2.3655,-2.3691,-2.3778,-2.3782,-2.3819,-2.3832,-2.3843,-2.3853,-2.3899,-2.3916,-2.3736,-2.3736,-2.3735,0,0,-2.3449,-2.346,-2.3488,-2.3532,-2.3546,-2.3591,-2.3532,-2.3582,-2.3615,-2.357,-2.3635,-2.3641,-2.3663,-2.3741,-2.3775,-2.3749,-2.3903,-2.3852,-2.3861,-2.3865,-2.3909,-2.3926,-2.3941,-2.3741,-2.374,-2.3739,0,0,-2.3564,-2.3576,-2.3636,-2.3651,-2.3673,-2.3669,-2.3683,-2.3698,-2.37,-2.3765,-2.3732,-2.3771,-2.3838,-2.3855,-2.3872,-2.3992,-2.3966,-2.4004,-2.4072,-2.4118,-2.4132,-2.4144,-2.4188,-2.4204,-2.4013,-2.4013,-2.4013,0,-2.3624,-2.3689,-2.3671,-2.3723,-2.3743,-2.3704,-2.3765,-2.3781,-2.3813,-2.3829,-2.3798,-2.3881,-2.3893,-2.3975,-2.4004,-2.4019,-2.4035,-2.4002,-2.4131,-2.4144,-2.4155,-2.4197,-2.4213,-2.4018,-2.4017,-2.4017,-2.4016,0,-2.3762,-2.3808,-2.3854,-2.3887,-2.3912,-2.3969,-2.3959,-2.3987,-2.3971,-2.397,-2.4036,-2.4048,-2.4086,-2.4104,-2.4089,-2.4184,-2.4167,-2.4134,-2.4081,-2.4177,-2.4216,-2.4232,-2.4024,-2.4023,-2.4021,-2.402,0,0,-2.3921,-2.3941,-2.3959,-2.3973,-2.3993,-2.4029,-2.4083,-2.4119,-2.4144,-2.4167,-2.4213,-2.427,-2.424,-2.426,-2.4246,-2.4286,-2.4381,-2.4248,-2.4249,-2.4274,-2.4487,-2.4512,-2.4531,-2.4363,-2.4366,-2.4368,-2.4485,0,-2.4037,-2.4131,-2.4115,-2.4207,-2.425,-2.4212,-2.4259,-2.4277,-2.4277,-2.4313,-2.4312,-2.4354,-2.431,-2.4322,-2.436,-2.4361,-2.4424,-2.4352,-2.4406,-2.4408,-2.4404,-2.4551,-2.4578,-2.4689,-2.45,-2.4503,-2.4504,0,-2.4185,-2.4213,-2.4309,-2.4322,-2.434,-2.4383,-2.4415,-2.4449,-2.4468,-2.4465,-2.4487,-2.4465,-2.4519,-2.4464,-2.4539,-2.4491,-2.4511,-2.4515,-2.4519,-2.4525,-2.4464,-2.4562,-2.4723,-2.4741,-2.4528,-2.4526,-2.4524,0,-2.4293,-2.4355,-2.442,-2.4433,-2.445,-2.4481,-2.449,-2.4506,-2.4528,-2.4556,-2.4571,-2.4604,-2.4623,-2.465,-2.4638,-2.4599,-2.4715,-2.4659,-2.4715,-2.4716,-2.4743,-2.4742,-2.4911,-2.4754,-2.4753,-2.4753,-2.4753,0,-2.4425,-2.4485,-2.4469,-2.451,-2.4576,-2.4557,-2.4623,-2.4627,-2.4641,-2.4682,-2.465,-2.4689,-2.467,-2.4708,-2.4699,-2.4762,-2.4771,-2.477,-2.4767,-2.4774,-2.4775,-2.4789,-2.4781,-2.4757,-2.4756,-2.4756,-2.4755,0,-2.4558,-2.455,-2.4619,-2.4628,-2.4632,-2.4681,-2.4689,-2.4727,-2.4724,-2.4776,-2.4787,-2.4782,-2.4824,-2.4814,-2.486,-2.4854,-2.4935,-2.4921,-2.4929,-2.4926,-2.4984,-2.4979,-2.517,-2.5194,-2.5019,-2.5021,-2.5022,0,-2.4644,-2.4689,-2.4704,-2.4729,-2.4739,-2.478,-2.4803,-2.4785,-2.481,-2.4834,-2.487,-2.4909,-2.494,-2.5009,-2.5009,-2.5044,-2.5033,-2.5097,-2.5038,-2.5043,-2.5035,-2.5034,-2.5038,-2.5109,-2.5111,-2.5113,-2.5114,0,-2.4797,-2.479,-2.4825,-2.4858,-2.4886,-2.4911,-2.4933,-2.4955,-2.4939,-2.4969,-2.5011,-2.5035,-2.5082,-2.5121,-2.5153,-2.5162,-2.5136,-2.5132,-2.5148,-2.5156,-2.5159,-2.5159,-2.4962,-2.5129,-2.5127,-2.5126,-2.5126,-2.5125,-2.491,-2.4949,-2.4965,-2.5004,-2.5019,-2.504,-2.5076,-2.5077,-2.5112,-2.5149,-2.5136,-2.5185,-2.5201,-2.5242,-2.5254,-2.5292,-2.5268,-2.529,-2.5295,-2.5302,-2.5309,-2.5151,-2.5298,-2.5297,-2.5297,-2.5296,-2.5296,0,-2.5063,-2.5071,-2.5107,-2.5139,-2.517,-2.5141,-2.5164,-2.5192,-2.5235,-2.5253,-2.5284,-2.5332,-2.537,-2.5373,-2.5409,-2.5439,-2.5428,-2.5449,-2.5447,-2.545,-2.5328,-2.5312,-2.5457,-2.5457,-2.5457,-2.5457,-2.5457,-2.5457,-2.5147,-2.5211,-2.5206,-2.5277,-2.5285,-2.5332,-2.5348,-2.5367,-2.5381,-2.5437,-2.5468,-2.547,-2.5482,-2.5518,-2.5551,-2.5551,-2.5566,-2.5592,-2.5588,-2.5474,-2.5458,-2.5443,-2.5428,-2.5595,-2.5595,-2.5706,-2.5707,-2.5708]},{"header":{"parameterUnit":"m.s-1","parameterCategory":1,"la1":30.2991,"la2":30.254,"lo1":-89.0895,"lo2":-89.0444,"dy":0.0017,"dx":0.0017,"nx":28,"ny":28,"refTime":"2024-12-06T09:00:00:Z","depth":0,"parameterNumber":3,"parameterNumberName":"V-component_of_WINDS"},"data":[0,0,0,0,0,0,0,0,0,0,0,0,0,0,0,0,0,0,0,0,0,0,0,0,0,0,0,0,0,0,0,0,0,0,0,0,0,0,0,0,0,0,0,0,0,0,0,0,0,0,0,0,0,0,0,0,0,0,-6.3501,-6.3501,0,-6.3558,-6.3559,-6.3559,-6.3493,-6.349,-6.3488,-6.3486,-6.3539,-6.3543,-6.3546,0,0,0,0,0,0,0,0,0,0,0,0,0,-6.3329,-6.3332,-6.3501,-6.3502,-6.3502,-6.3558,-6.3559,-6.3559,-6.3493,-6.349,-6.3487,-6.3485,-6.3538,-6.3542,-6.3547,0,0,0,0,0,0,0,0,0,0,0,0,0,-6.3396,-6.3333,-6.3501,-6.3476,-6.3474,-6.3558,-6.3559,-6.356,-6.3494,-6.349,-6.3487,-6.3483,-6.3536,-6.3542,-6.3547,-6.3656,0,0,-6.3564,-6.3567,0,0,0,0,0,0,0,0,-6.3393,-6.3403,-6.3479,-6.3478,-6.3476,-6.3515,-6.3517,-6.3592,-6.3495,-6.3486,-6.3486,-6.3481,-6.3534,-6.3539,-6.3558,-6.3658,-6.3661,-6.3565,-6.3568,-6.3571,-6.3572,0,0,0,0,0,0,0,-6.3388,-6.34,-6.3523,-6.348,-6.3479,-6.346,-6.3466,-6.3531,-6.353,-6.3487,-6.3482,-6.349,-6.3532,-6.3553,-6.3559,-6.3661,-6.3565,-6.357,-6.3573,-6.3575,-6.3853,-6.3857,0,0,0,0,0,0,-6.3387,-6.3396,-6.3521,-6.3525,-6.3425,-6.3467,-6.3473,-6.3506,-6.3529,-6.3529,-6.3493,-6.3487,-6.3545,-6.3552,-6.356,-6.3689,-6.3571,-6.3576,-6.3579,-6.3849,-6.3854,-6.3859,0,0,0,0,0,0,-6.3383,-6.3399,-6.3519,-6.346,-6.3473,-6.3473,-6.3511,-6.3509,-6.353,-6.3534,-6.3533,-6.3515,-6.3542,-6.3552,-6.3633,-6.369,-6.3578,-6.3583,-6.3845,-6.3851,-6.3857,-6.3947,0,0,0,0,0,0,-6.3379,-6.3398,-6.3441,-6.3461,-6.3477,-6.3593,-6.3515,-6.3513,-6.354,-6.3532,-6.3554,-6.3554,-6.354,-6.3625,-6.3638,-6.3696,-6.3588,-6.384,-6.3847,-6.3855,-6.3939,-6.3956,-6.397,0,0,0,0,0,-6.3373,-6.3463,-6.3443,-6.3458,-6.3531,-6.3596,-6.3605,-6.3589,-6.3545,-6.3587,-6.359,-6.3553,-6.3681,-6.3634,-6.3648,-6.3708,-6.3836,-6.3845,-6.3854,-6.3932,-6.3953,-6.397,0,0,0,0,0,0,-6.3447,-6.3465,-6.3443,-6.3543,-6.3569,-6.3585,-6.3637,-6.3611,-6.3648,-6.3639,-6.3616,-6.3621,-6.3707,-6.3715,-6.3662,-6.3814,-6.3751,-6.3764,-6.3806,-6.3825,-6.384,-6.3836,-6.3592,0,0,0,0,0,-6.3475,-6.3529,-6.3541,-6.3627,-6.3642,-6.3638,-6.3665,-6.3651,-6.3676,-6.3686,-6.3695,-6.3719,-6.3765,-6.3795,-6.3837,-6.394,-6.3943,-6.3988,-6.4003,-6.4016,-6.4027,-6.4082,-6.4102,-6.3889,-6.3888,-6.3888,0,0,-6.3533,-6.355,-6.3585,-6.3643,-6.3661,-6.3715,-6.3647,-6.3707,-6.3747,-6.3695,-6.3772,-6.3779,-6.3804,-6.3897,-6.3938,-6.3906,-6.4087,-6.4028,-6.4038,-6.4042,-6.4093,-6.4113,-6.4131,-6.3895,-6.3894,-6.3893,0,0,-6.3667,-6.3685,-6.376,-6.378,-6.3809,-6.3806,-6.3824,-6.3845,-6.3848,-6.3925,-6.3887,-6.3933,-6.4012,-6.4032,-6.4052,-6.4194,-6.4162,-6.4208,-6.4288,-6.4342,-6.4359,-6.4374,-6.4424,-6.4443,-6.4219,-6.422,-6.422,0,-6.3735,-6.3818,-6.38,-6.3865,-6.3891,-6.3847,-6.3921,-6.3941,-6.3982,-6.4,-6.3965,-6.4064,-6.4078,-6.4174,-6.4209,-6.4227,-6.4246,-6.4206,-6.4358,-6.4373,-6.4386,-6.4434,-6.4453,-6.4225,-6.4224,-6.4224,-6.4223,0,-6.39,-6.3958,-6.4014,-6.4057,-6.4089,-6.4158,-6.4149,-6.4184,-6.4166,-6.4166,-6.4245,-6.4261,-6.4305,-6.4327,-6.4309,-6.4421,-6.44,-6.4362,-6.4298,-6.4412,-6.4457,-6.4475,-6.4233,-6.4231,-6.4229,-6.4228,0,0,-6.4082,-6.4116,-6.4136,-6.4155,-6.4185,-6.4228,-6.4294,-6.434,-6.437,-6.4399,-6.4453,-6.4521,-6.4486,-6.4509,-6.4494,-6.4541,-6.4652,-6.4496,-6.4497,-6.4525,-6.4775,-6.4804,-6.4826,-6.4631,-6.4634,-6.4637,-6.4773,0,-6.4217,-6.4334,-6.432,-6.4431,-6.4484,-6.4443,-6.45,-6.4524,-6.4525,-6.4569,-6.4569,-6.4619,-6.4568,-6.4582,-6.4627,-6.4629,-6.4702,-6.4619,-6.468,-6.4682,-6.4675,-6.4849,-6.488,-6.5008,-6.479,-6.4793,-6.4796,0,-6.439,-6.4428,-6.4545,-6.4566,-6.4588,-6.464,-6.4681,-6.4723,-6.4748,-6.4746,-6.4772,-6.4748,-6.4813,-6.4748,-6.4836,-6.478,-6.4804,-6.4809,-6.4813,-6.4818,-6.4746,-6.4859,-6.5048,-6.5067,-6.4823,-6.4821,-6.4819,0,-6.4511,-6.4591,-6.4672,-6.4689,-6.4716,-6.4754,-6.4766,-6.4788,-6.4816,-6.4851,-6.4869,-6.491,-6.4932,-6.4964,-6.4951,-6.4905,-6.5042,-6.4976,-6.5041,-6.5041,-6.5071,-6.507,-6.5267,-6.5087,-6.5086,-6.5086,-6.5086,0,-6.4663,-6.4736,-6.4727,-6.4776,-6.4857,-6.4839,-6.4918,-6.4926,-6.4945,-6.4994,-6.496,-6.5007,-6.4987,-6.5031,-6.5021,-6.5096,-6.5106,-6.5105,-6.5101,-6.5108,-6.5108,-6.5124,-6.5114,-6.5091,-6.509,-6.5089,-6.5088,0,-6.4813,-6.4809,-6.4894,-6.4914,-6.492,-6.4978,-6.4994,-6.5039,-6.5038,-6.5101,-6.5114,-6.5112,-6.5163,-6.5153,-6.5208,-6.5202,-6.5295,-6.528,-6.5287,-6.5284,-6.5349,-6.5343,-6.5563,-6.5591,-6.5393,-6.5395,-6.5396,0,-6.491,-6.4966,-6.4992,-6.5023,-6.5039,-6.509,-6.5119,-6.5103,-6.5135,-6.5168,-6.5209,-6.5257,-6.5295,-6.5377,-6.5379,-6.5421,-6.5407,-6.5482,-6.5413,-6.5418,-6.5409,-6.5406,-6.5411,-6.5495,-6.5497,-6.5499,-6.5501,0,-6.5084,-6.5079,-6.5124,-6.5169,-6.5205,-6.5238,-6.5268,-6.5295,-6.5282,-6.5319,-6.5371,-6.5401,-6.5458,-6.5505,-6.5544,-6.5555,-6.5526,-6.5522,-6.554,-6.5547,-6.5549,-6.5549,-6.5324,-6.5517,-6.5516,-6.5514,-6.5514,-6.5513,-6.521,-6.5258,-6.5284,-6.5334,-6.5356,-6.5385,-6.5429,-6.5434,-6.5478,-6.5525,-6.5512,-6.5572,-6.5594,-6.5644,-6.5659,-6.5704,-6.5676,-6.5701,-6.5708,-6.5714,-6.5722,-6.5542,-6.5711,-6.5711,-6.571,-6.571,-6.5709,0,-6.5382,-6.5397,-6.5444,-6.5488,-6.5528,-6.5498,-6.553,-6.5564,-6.5618,-6.5642,-6.568,-6.574,-6.5786,-6.5793,-6.5836,-6.5871,-6.5858,-6.5882,-6.588,-6.5883,-6.5745,-6.5726,-6.5892,-6.5892,-6.5892,-6.5892,-6.5892,-6.5892,-6.5476,-6.5555,-6.5554,-6.5643,-6.5657,-6.5717,-6.5737,-6.5763,-6.5783,-6.5852,-6.5891,-6.5895,-6.5912,-6.5956,-6.5997,-6.5997,-6.6015,-6.6044,-6.604,-6.5911,-6.5892,-6.5875,-6.5857,-6.6048,-6.6048,-6.6174,-6.6175,-6.6176]}]]